Weather in Tauysk

Russia / Magadan District     59°43′28″N   149°19′41″E
temp.,
°C
wind,
m/s
gust,
m/s
humid.,
%
clouds,
%
prec.,
mm/h
press.,
hPa
HPBL,
m
27 january, thu
thu2723:00−18nw2298100 1.2 101561
02:00−19nw3397100 0.4 101559
05:00−20nw2292100 0.5 101626
08:00−24nnw2286100 0.0 101711
11:00−23nw3379100 0.0 101774
14:00−21nw4475100 0.0 1016141
17:00−22nw4480100 0.0 101554
20:00−23nw4577100 0.0 101499
28 january, fri
fri2823:00−25nw467817 0.0 101366
02:00−24nw6779100 0.0 1010141
05:00−20nw7998100 0.4 1008217
08:00−19nw7997100 0.8 1005219
11:00−16nw6886100 1.0 1003197
14:00−12nw5689100 0.1 1002211
17:00−11nnw4579100 0.2 1001105
20:00−12nnw4479100 0.0 100158
29 january, sat
sat2923:00−11nnw4579100 0.0 100169
02:00−10nnw3478100 0.0 100155
05:00−10nnw3378100 0.0 100145
08:00−10nnw3378100 0.0 100043
11:00−10n3377100 0.0 100042
14:00−8nnw3377100 0.0 100048
17:00−9n3379100 0.0 100223
20:00−10ne228199 0.1 100535
30 january, sun
sun3023:00−8ne2595100 1.2 1008135
02:00−8ene2496100 1.4 101197
05:00−8n1296100 2.9 101445
08:00−9nnw229692 0.6 101633
11:00−10nw3489100 0.9 101799
14:00−8nw4494100 0.5 1017161
17:00−7wnw3488100 0.7 101664
20:00−9nw3384100 0.0 101724
31 january, mon
mon3123:00−10nw228198 0.0 101730
02:00−12nw338399 0.0 101722
05:00−14nnw33805 0.0 101716
08:00−17nnw437964 0.0 101728
11:00−17nw22856 0.0 101722
14:00−11nw458195 0.0 101781
17:00−15nw44804 0.0 101730
20:00−18nw438019 0.0 101729